Weather in Chernorechenskiy

Russia / Komi Republic     62°45′48″N   51°29′47″E
temp.,
°C
wind,
m/s
gust,
m/s
humid.,
%
clouds,
%
prec.,
mm/h
press.,
hPa
HPBL,
m
16 may, sun
sun1600:00+13se2575100 0.0 1013111
03:00+12se2781100 0.0 1012162
06:00+13ese2580100 0.1 1010200
09:00+20s356356 0.1 10091056
12:00+25sw5103655 0.4 10072983
15:00+23wsw593911 0.4 10071223
18:00+22sw5114499 0.3 10061968
21:00+14s3985100 1.8 1006194
17 may, mon
mon1700:00+14sw412855 2.2 1007508
03:00+13sw411925 2.3 1007503
06:00+14sw5982100 0.1 10081083
09:00+13wsw51088100 0.5 1009865
12:00+14wsw5882100 0.4 10111114
15:00+14wnw5977100 0.4 10131141
18:00+11nw4886100 0.1 1016756
21:00+9nnw4684100 0.1 1018642
18 may, tue
tue1800:00+8n378480 0.0 1020438
03:00+6n25931 0.0 1022154
06:00+10nne23590 0.0 1023406
09:00+15nne1241100 0.0 1024939
12:00+19ne1134100 0.0 10231191
15:00+20ese1131100 0.0 10231466
18:00+19sse2337100 0.0 1022516
21:00+14se2551100 0.0 102281
19 may, wed
wed1900:00+12se276062 0.0 1022116
03:00+11sse286797 0.0 1022157
06:00+15s3862100 0.0 1022298
09:00+21s464678 0.0 1020769
12:00+25ssw46375 0.0 10191464
15:00+27ssw46334 0.0 10172195
18:00+26ssw47381 0.0 10161010
21:00+20ssw312570 0.0 1016298
20 may, thu
thu2000:00+18ssw312660 0.0 1016296
03:00+16ssw311730 0.0 1017257
06:00+19ssw37540 0.0 1016357
09:00+24ssw46356 0.0 10151096
12:00+27ssw572411 0.0 10131886
15:00+28ssw462560 0.0 10122260
18:00+26s58365 0.0 10111580
21:00+20s31246100 0.0 1011372